GW2978 Weather Reports


time (UTC)temp
C
wind
direction
speed
KPH
gust
KPH
rain 1hr
cm
rain 24hr
cm
rain mn
cm
humidity
%
barometer
mb
20260906085930 18 207 0.0 0.0 0.00 0.00 0.00 99 1011.5
20260906085429 18 216 0.0 1.6 0.00 0.00 0.00 99 1011.7
20260906084928 18 200 0.0 0.0 0.00 0.00 0.00 99 1011.3
20260906084424 18 200 0.0 0.0 0.00 0.00 0.00 99 1011.4
20260906083923 18 200 0.0 0.0 0.00 0.00 0.00 99 1011.5
20260906083418 18 202 0.0 0.0 0.00 0.00 0.00 99 1011.5
20260906082918 18 203 0.0 0.0 0.00 0.00 0.00 99 1011.5
20260906082413 18 195 0.0 0.0 0.00 0.00 0.00 99 1011.5
20260906081909 18 195 0.0 0.0 0.00 0.00 0.00 99 1011.4
20260906081404 18 201 0.0 0.0 0.00 0.00 0.00 99 1011.5
20260906080900 18 204 0.0 0.0 0.00 0.00 0.00 99 1011.7
20260906080357 18 195 0.0 0.0 0.00 0.00 0.00 99 1011.4
20260906075855 18 194 0.0 0.0 0.00 0.00 0.00 99 1011.4
20260906075351 18 197 0.0 0.0 0.00 0.00 0.00 99 1011.4
20260906074846 18 200 0.0 0.0 0.00 0.00 0.00 99 1011.7
20260906074346 19 200 0.0 0.0 0.00 0.00 0.00 99 1011.3
20260906073844 19 200 0.0 0.0 0.00 0.00 0.00 99 1011.4
20260906073339 19 200 0.0 0.0 0.00 0.00 0.00 99 1011.4
20260906072836 19 195 0.0 0.0 0.00 0.00 0.00 99 1011.1
20260906072332 19 195 0.0 0.0 0.00 0.00 0.00 99 1010.9
20260906071827 19 195 0.0 0.0 0.00 0.00 0.00 99 1011.2
20260906071322 19 203 0.0 0.0 0.00 0.00 0.00 99 1011.5
20260906070818 19 196 0.0 0.0 0.00 0.00 0.00 99 1011.4
20260906070314 19 193 0.0 0.0 0.00 0.00 0.00 99 1011.4
20260906065808 19 195 0.0 0.0 0.00 0.00 0.00 99 1011.5
20260906065305 19 195 0.0 0.0 0.00 0.00 0.00 99 1011.7
20260906064759 19 203 0.0 0.0 0.00 0.00 0.00 99 1011.9
20260906064255 19 203 0.0 0.0 0.00 0.00 0.00 99 1012.0
20260906063749 19 203 0.0 0.0 0.00 0.00 0.00 99 1012.0
20260906063245 19 207 0.0 0.0 0.00 0.00 0.00 99 1012.2
20260906062740 19 207 0.0 0.0 0.00 0.00 0.00 99 1012.3
20260906062239 19 207 0.0 0.0 0.00 0.00 0.00 99 1012.3
20260906061735 19 207 0.0 0.0 0.00 0.00 0.00 99 1012.2
20260906061232 19 207 0.0 0.0 0.00 0.00 0.00 99 1012.2
20260906060726 20 207 0.0 0.0 0.00 0.00 0.00 99 1012.2
20260906060224 20 208 0.0 0.0 0.00 0.00 0.00 99 1012.2
20260906055719 20 206 0.0 0.0 0.00 0.00 0.00 99 1011.9
20260906055214 20 197 0.0 0.0 0.00 0.00 0.00 99 1012.2
20260906054709 20 195 0.0 0.0 0.00 0.00 0.00 99 1012.4
20260906054204 20 197 0.0 0.0 0.00 0.00 0.00 99 1012.3
20260906053701 20 195 0.0 0.0 0.00 0.00 0.00 99 1012.5
20260906053156 20 197 0.0 0.0 0.00 0.00 0.00 99 1012.6
20260906052651 20 199 0.0 0.0 0.00 0.00 0.00 99 1012.6
20260906052147 20 207 0.0 0.0 0.00 0.00 0.00 99 1012.4
20260906051644 20 209 0.0 0.0 0.00 0.00 0.00 99 1012.4
20260906051143 20 212 0.0 0.0 0.00 0.00 0.00 99 1012.6
20260906050639 20 207 0.0 0.0 0.00 0.00 0.00 99 1012.4
20260906050134 20 213 0.0 0.0 0.00 0.00 0.00 98 1012.7
20260906045632 20 207 0.0 0.0 0.00 0.00 0.00 98 1012.7
20260906045127 20 204 0.0 0.0 0.00 0.00 0.00 98 1012.5
20260906044624 20 206 0.0 0.0 0.00 0.00 0.00 98 1012.6
20260906044119 20 198 0.0 0.0 0.00 0.00 0.00 98 1012.7
20260906043615 20 206 0.0 0.0 0.00 0.00 0.00 98 1012.7
20260906043110 20 204 0.0 0.0 0.00 0.00 0.00 98 1012.6
20260906042609 20 201 0.0 0.0 0.00 0.00 0.00 98 1012.6
20260906042104 20 209 0.0 0.0 0.00 0.00 0.00 98 1012.9
20260906041600 21 207 0.0 0.0 0.00 0.00 0.00 98 1012.7
20260906041055 20 212 3.2 3.2 0.00 0.00 0.00 98 1012.8
20260906040550 20 201 0.0 0.0 0.00 0.00 0.00 98 1012.7
20260906040046 20 200 0.0 0.0 0.00 0.00 0.00 98 1012.8
20260906035541 20 199 0.0 0.0 0.00 0.00 0.00 98 1012.7
20260906035037 21 202 0.0 0.0 0.00 0.00 0.00 97 1012.8
20260906034536 21 196 0.0 0.0 0.00 0.00 0.00 97 1012.9
20260906034031 21 200 0.0 0.0 0.00 0.00 0.00 97 1012.7
20260906033526 21 213 0.0 0.0 0.00 0.00 0.00 97 1012.8
20260906033016 21 205 0.0 0.0 0.00 0.00 0.00 97 1013.0
20260906032513 21 204 0.0 0.0 0.00 0.00 0.00 97 1012.7
20260906032013 21 197 0.0 0.0 0.00 0.00 0.00 97 1012.5
20260906031508 21 200 0.0 0.0 0.00 0.00 0.00 97 1012.6
20260906031004 21 202 0.0 0.0 0.00 0.00 0.00 97 1012.6
20260906030457 21 194 0.0 0.0 0.00 0.00 0.00 97 1012.9
20260906025951 21 209 0.0 0.0 0.00 0.00 0.00 97 1012.9
20260906025446 21 207 0.0 1.6 0.00 0.00 0.00 97 1013.1
20260906024945 21 201 0.0 0.0 0.00 0.00 0.00 96 1012.8
20260906024444 21 203 0.0 0.0 0.00 0.00 0.00 96 1012.8
20260906023939 21 201 0.0 0.0 0.00 0.00 0.00 96 1012.6
20260906023435 21 204 0.0 0.0 0.00 0.00 0.00 96 1012.5
20260906022930 21 205 0.0 0.0 0.00 0.00 0.00 95 1012.6
20260906022426 21 205 0.0 0.0 0.00 0.00 0.00 95 1012.6
20260906021921 21 197 0.0 0.0 0.00 0.00 0.00 95 1012.8
20260906021420 21 205 0.0 0.0 0.00 0.00 0.00 95 1012.7
20260906020914 21 216 0.0 0.0 0.00 0.00 0.00 95 1012.6
20260906020409 21 203 0.0 0.0 0.00 0.00 0.00 95 1012.7
20260906015903 21 200 0.0 0.0 0.00 0.00 0.00 94 1012.5
20260906015402 21 204 0.0 0.0 0.00 0.00 0.00 94 1012.4
20260906014856 22 198 0.0 0.0 0.00 0.00 0.00 94 1012.6
20260906014351 21 199 0.0 0.0 0.00 0.00 0.00 94 1012.4
20260906013847 22 201 0.0 0.0 0.00 0.00 0.00 94 1012.4
20260906013343 22 201 0.0 0.0 0.00 0.00 0.00 93 1012.4
20260906012838 22 201 0.0 0.0 0.00 0.00 0.00 93 1012.3
20260906012333 22 201 0.0 0.0 0.00 0.00 0.00 93 1012.3
20260906011833 22 200 0.0 0.0 0.00 0.00 0.00 93 1012.4
20260906011328 22 200 0.0 0.0 0.00 0.00 0.00 92 1012.2
20260906010824 22 200 0.0 0.0 0.00 0.00 0.00 92 1012.2
20260906010320 22 210 0.0 0.0 0.00 0.00 0.00 92 1012.1
20260906005815 22 202 0.0 3.2 0.00 0.00 0.00 91 1012.1
20260906005313 22 204 0.0 0.0 0.00 0.00 0.00 91 1012.1
20260906004813 22 198 0.0 1.6 0.00 0.00 0.00 91 1012.0
20260906004313 22 185 0.0 0.0 0.00 0.00 0.00 90 1012.0
20260906003808 22 210 0.0 1.6 0.00 0.00 0.00 90 1011.8
20260906003303 23 195 0.0 1.6 0.00 0.00 0.00 89 1011.7
20260906002759 23 198 0.0 1.6 0.00 0.00 0.00 88 1011.7
20260906002258 23 202 0.0 0.0 0.00 0.00 0.00 88 1011.8
20260906001754 23 205 0.0 4.8 0.00 0.00 0.00 87 1011.3
20260906001248 23 199 0.0 0.0 0.00 0.00 0.00 86 1011.1
20260906000743 24 205 0.0 0.0 0.00 0.00 0.00 85 1011.4
20260906000238 24 208 0.0 0.0 0.00 0.00 0.00 84 1011.1
20260905235733 25 191 0.0 0.0 0.00 0.00 0.00 84 1011.0
20260905235232 25 198 0.0 0.0 0.00 0.00 0.00 82 1011.0
20260905234728 25 195 0.0 0.0 0.00 0.00 0.00 81 1011.3
20260905234223 26 198 0.0 0.0 0.00 0.00 0.00 79 1011.0
20260905233718 26 199 0.0 0.0 0.00 0.00 0.00 78 1011.1
20260905233218 27 195 0.0 0.0 0.00 0.00 0.00 77 1011.2
20260905232713 28 199 0.0 0.0 0.00 0.00 0.00 75 1011.1
20260905232208 28 200 0.0 0.0 0.00 0.00 0.00 74 1011.2
20260905231704 29 199 0.0 0.0 0.00 0.00 0.00 73 1010.8
20260905231200 30 198 0.0 0.0 0.00 0.00 0.00 71 1011.0
20260905230655 30 205 0.0 0.0 0.00 0.00 0.00 70 1011.0
20260905230153 30 208 0.0 0.0 0.00 0.00 0.00 71 1011.2
20260905225653 30 205 0.0 0.0 0.00 0.00 0.00 69 1011.4
20260905225148 30 205 0.0 1.6 0.00 0.00 0.00 69 1011.4
20260905224647 30 190 1.6 1.6 0.00 0.00 0.00 67 1011.1
20260905224142 30 206 0.0 1.6 0.00 0.00 0.00 66 1011.2
20260905223639 30 205 1.6 3.2 0.00 0.00 0.00 66 1011.3
20260905223136 30 200 0.0 1.6 0.00 0.00 0.00 66 1011.3
20260905222631 31 202 1.6 1.6 0.00 0.00 0.00 66 1011.3
20260905222126 31 196 0.0 1.6 0.00 0.00 0.00 67 1011.1
20260905221621 30 202 0.0 1.6 0.00 0.00 0.00 67 1011.3
20260905221118 30 203 1.6 3.2 0.00 0.00 0.00 67 1011.2
20260905220613 30 204 0.0 4.8 0.00 0.00 0.00 68 1011.0
20260905220109 30 171 3.2 3.2 0.00 0.00 0.00 67 1011.2
20260905215608 30 210 0.0 1.6 0.00 0.00 0.00 68 1011.4
20260905215104 30 220 1.6 3.2 0.00 0.00 0.00 69 1011.3
20260905214601 30 223 3.2 4.8 0.00 0.00 0.00 68 1011.3
20260905214100 30 215 3.2 3.2 0.00 0.00 0.00 68 1011.3
20260905213556 30 205 0.0 3.2 0.00 0.00 0.00 67 1011.3
20260905213051 31 201 0.0 6.4 0.00 0.00 0.00 67 1011.3
20260905212551 30 209 0.0 0.0 0.00 0.00 0.00 69 1011.1
20260905212045 30 208 1.6 3.2 0.00 0.00 0.00 70 1011.1
20260905211540 30 207 3.2 4.8 0.00 0.00 0.00 71 1011.1
20260905211036 29 214 4.8 4.8 0.00 0.00 0.00 71 1011.0
20260905210531 29 231 4.8 4.8 0.00 0.00 0.00 71 1011.1
20260905210026 28 200 3.2 4.8 0.00 0.00 0.00 71 1010.9
20260905205525 28 210 4.8 4.8 0.00 0.00 0.00 70 1010.8
20260905205024 28 224 6.4 6.4 0.00 0.00 0.00 69 1011.1
20260905204520 28 208 3.2 9.7 0.00 0.00 0.00 68 1011.1
20260905204015 28 238 3.2 6.4 0.00 0.00 0.00 70 1011.2
20260905203509 28 223 6.4 6.4 0.00 0.00 0.00 70 1010.8
20260905203005 28 214 4.8 6.4 0.00 0.00 0.00 69 1010.9
20260905202500 28 254 6.4 12.9 0.00 0.00 0.00 70 1011.2
20260905201956 28 230 1.6 4.8 0.00 0.00 0.00 72 1011.2
20260905201450 28 227 6.4 9.7 0.00 0.00 0.00 72 1011.3
20260905200950 28 214 4.8 4.8 0.00 0.00 0.00 72 1011.1
20260905200446 28 207 3.2 4.8 0.00 0.00 0.00 72 1011.3
20260905195944 27 208 1.6 4.8 0.00 0.00 0.00 72 1011.3
20260905195440 27 203 1.6 4.8 0.00 0.00 0.00 73 1011.2
20260905194935 27 204 4.8 9.7 0.00 0.00 0.00 73 1011.4
20260905194434 28 210 3.2 4.8 0.00 0.00 0.00 75 1011.4
20260905193929 28 204 0.0 4.8 0.00 0.00 0.00 73 1011.1
20260905193424 28 228 6.4 6.4 0.00 0.00 0.00 70 1010.9
20260905192919 28 216 1.6 4.8 0.00 0.00 0.00 69 1011.0
20260905192414 28 198 3.2 4.8 0.00 0.00 0.00 69 1010.9
20260905191914 28 204 3.2 4.8 0.00 0.00 0.00 69 1011.0
20260905191414 28 214 3.2 4.8 0.00 0.00 0.00 69 1010.8
20260905190908 28 275 3.2 9.7 0.00 0.00 0.00 69 1011.0
20260905190400 28 225 3.2 6.4 0.00 0.00 0.00 70 1011.0
20260905185859 28 198 3.2 4.8 0.00 0.00 0.00 71 1010.8
20260905185355 28 202 1.6 3.2 0.00 0.00 0.00 73 1011.0
20260905184853 27 196 3.2 4.8 0.00 0.00 0.00 74 1010.9
20260905184353 27 221 4.8 9.7 0.00 0.00 0.00 76 1011.2
20260905183851 26 208 4.8 9.7 0.00 0.00 0.00 78 1011.5
20260905183347 26 222 3.2 6.4 0.00 0.00 0.00 79 1011.5
20260905182841 25 222 4.8 4.8 0.00 0.00 0.00 79 1011.5
20260905182335 26 217 3.2 4.8 0.00 0.00 0.00 77 1011.7
20260905181831 26 206 0.0 3.2 0.00 0.00 0.00 75 1011.5
20260905181325 26 180 0.0 3.2 0.00 0.00 0.00 72 1011.8
20260905180824 26 202 0.0 4.8 0.00 0.00 0.00 70 1012.2
20260905180320 27 210 0.0 0.0 0.00 0.00 0.00 68 1012.3
20260905175814 27 198 0.0 0.0 0.00 0.00 0.00 67 1012.3
20260905175308 27 207 0.0 3.2 0.00 0.00 0.00 69 1012.6
20260905174804 27 210 0.0 0.0 0.00 0.00 0.00 67 1012.9
20260905174300 27 206 1.6 3.2 0.00 0.00 0.00 67 1013.1
20260905173756 27 204 0.0 3.2 0.00 0.00 0.00 66 1013.1
20260905173251 27 195 0.0 3.2 0.00 0.00 0.00 66 1013.2
20260905172750 27 181 0.0 3.2 0.00 0.00 0.00 66 1013.3
20260905172249 28 200 1.6 6.4 0.00 0.00 0.00 65 1013.5
20260905171746 28 214 1.6 6.4 0.00 0.00 0.00 64 1013.8
20260905171242 28 4 12.9 17.7 0.00 0.00 0.00 63 1013.7
20260905170738 29 332 9.7 16.1 0.00 0.00 0.00 65 1013.7
20260905170234 30 236 4.8 11.3 0.00 0.00 0.00 66 1013.4
20260905165732 31 315 3.2 9.7 0.00 0.00 0.00 65 1013.4
20260905165228 32 313 9.7 20.9 0.00 0.00 0.00 66 1013.6
20260905164727 32 299 4.8 9.7 0.00 0.00 0.00 66 1013.4
20260905164223 32 208 4.8 9.7 0.00 0.00 0.00 66 1013.6
20260905163719 32 225 1.6 1.6 0.00 0.00 0.00 68 1013.6
20260905163215 32 227 1.6 4.8 0.00 0.00 0.00 68 1013.3
20260905162711 33 261 1.6 9.7 0.00 0.00 0.00 69 1013.4
20260905162210 33 203 0.0 4.8 0.00 0.00 0.00 67 1013.2
20260905161705 32 195 0.0 1.6 0.00 0.00 0.00 69 1013.2
20260905161203 32 219 3.2 6.4 0.00 0.00 0.00 70 1013.4
20260905160702 32 227 1.6 3.2 0.00 0.00 0.00 70 1013.4
20260905160202 32 243 6.4 9.7 0.00 0.00 0.00 70 1013.5
20260905155656 33 205 3.2 4.8 0.00 0.00 0.00 70 1013.5
20260905155155 33 214 0.0 1.6 0.00 0.00 0.00 72 1013.5
20260905154650 32 207 0.0 0.0 0.00 0.00 0.00 73 1013.5
20260905154145 32 209 1.6 6.4 0.00 0.00 0.00 74 1013.7
20260905153641 32 210 1.6 3.2 0.00 0.00 0.00 74 1013.6
20260905153136 31 223 0.0 3.2 0.00 0.00 0.00 75 1013.6
20260905152631 31 209 1.6 6.4 0.00 0.00 0.00 76 1013.4
20260905152126 32 209 3.2 4.8 0.00 0.00 0.00 77 1013.5
20260905151621 31 194 0.0 3.2 0.00 0.00 0.00 80 1013.2
20260905151116 31 195 0.0 3.2 0.00 0.00 0.00 81 1013.2
20260905150612 30 211 4.8 4.8 0.00 0.00 0.00 82 1013.2
20260905150109 30 210 3.2 11.3 0.00 0.00 0.00 84 1013.3
20260905145603 30 301 1.6 6.4 0.00 0.00 0.00 86 1013.2
20260905145102 30 220 3.2 6.4 0.00 0.00 0.00 88 1013.5
20260905144557 29 204 0.0 4.8 0.00 0.00 0.00 89 1013.4
20260905144056 29 241 1.6 3.2 0.00 0.00 0.00 91 1013.5
20260905143556 28 247 3.2 4.8 0.00 0.00 0.00 92 1013.5
20260905143051 28 225 3.2 4.8 0.00 0.00 0.00 93 1013.8
20260905142549 28 190 3.2 6.4 0.00 0.00 0.00 94 1013.6
20260905142044 27 190 3.2 4.8 0.00 0.00 0.00 96 1013.7
20260905141539 27 198 1.6 3.2 0.00 0.00 0.00 96 1013.5
20260905141036 27 201 0.0 4.8 0.00 0.00 0.00 97 1013.7
20260905140536 27 233 3.2 4.8 0.00 0.00 0.00 98 1013.5
20260905140035 27 228 1.6 4.8 0.00 0.00 0.00 98 1013.6
20260905135530 26 196 0.0 1.6 0.00 0.00 0.00 99 1013.3
20260905135025 26 213 1.6 3.2 0.00 0.00 0.00 99 1013.4
20260905134520 26 223 0.0 3.2 0.00 0.00 0.00 99 1013.4
20260905134019 25 199 0.0 3.2 0.00 0.00 0.00 99 1013.5
20260905133514 25 195 1.6 3.2 0.00 0.00 0.00 99 1013.8
20260905133014 25 204 0.0 1.6 0.00 0.00 0.00 99 1013.6
20260905132508 24 208 3.2 3.2 0.00 0.00 0.00 99 1013.8
20260905132003 23 210 0.0 0.0 0.00 0.00 0.00 99 1013.6
20260905131459 23 206 0.0 3.2 0.00 0.00 0.00 99 1013.5
20260905130954 23 208 0.0 1.6 0.00 0.00 0.00 99 1013.4
20260905130453 23 198 0.0 1.6 0.00 0.00 0.00 99 1013.8
20260905125953 23 234 1.6 3.2 0.00 0.00 0.00 99 1013.8
20260905125447 22 205 0.0 0.0 0.00 0.00 0.00 99 1013.7
20260905124943 22 204 0.0 1.6 0.00 0.00 0.00 99 1013.9
20260905124440 22 205 0.0 1.6 0.00 0.00 0.00 99 1013.8
20260905123934 21 203 0.0 3.2 0.00 0.00 0.00 99 1013.9
20260905123431 21 183 0.0 1.6 0.00 0.00 0.00 99 1013.8
20260905122926 21 207 0.0 1.6 0.00 0.00 0.00 99 1013.8
20260905122426 21 209 0.0 0.0 0.00 0.00 0.00 99 1013.8
20260905121921 21 205 0.0 0.0 0.00 0.00 0.00 99 1013.9
20260905121417 21 211 0.0 3.2 0.00 0.00 0.00 99 1013.9
20260905120915 20 203 0.0 0.0 0.00 0.00 0.00 99 1013.8
20260905120410 20 225 0.0 0.0 0.00 0.00 0.00 99 1013.9
20260905115905 20 207 0.0 0.0 0.00 0.00 0.00 99 1013.8
20260905115404 20 206 0.0 0.0 0.00 0.00 0.00 99 1013.8
20260905114859 20 210 0.0 0.0 0.00 0.00 0.00 99 1013.8
20260905114358 19 208 0.0 0.0 0.00 0.00 0.00 99 1013.7
20260905113852 19 203 0.0 0.0 0.00 0.00 0.00 99 1013.5
20260905113348 19 203 0.0 0.0 0.00 0.00 0.00 99 1013.4
20260905112843 18 192 0.0 0.0 0.00 0.00 0.00 99 1013.4
20260905112337 18 202 0.0 0.0 0.00 0.00 0.00 99 1013.3
20260905111832 18 202 0.0 0.0 0.00 0.00 0.00 99 1013.2
20260905111327 18 202 0.0 0.0 0.00 0.00 0.00 99 1013.2
20260905110826 18 193 0.0 0.0 0.00 0.00 0.00 99 1013.4
20260905110320 18 196 0.0 0.0 0.00 0.00 0.00 99 1013.4
20260905105816 18 203 0.0 0.0 0.00 0.00 0.00 99 1013.4
20260905105315 18 200 0.0 0.0 0.00 0.00 0.00 99 1013.2
20260905104809 18 200 0.0 0.0 0.00 0.00 0.00 99 1013.0
20260905104306 18 201 0.0 0.0 0.00 0.00 0.00 99 1013.2
20260905103805 18 203 0.0 0.0 0.00 0.00 0.00 99 1013.1
20260905103301 18 202 0.0 0.0 0.00 0.00 0.00 99 1013.1
20260905102756 18 203 0.0 0.0 0.00 0.00 0.00 99 1013.0
20260905102253 18 203 0.0 0.0 0.00 0.00 0.00 99 1013.0
20260905101753 18 202 0.0 0.0 0.00 0.00 0.00 99 1012.8
20260905101251 19 198 0.0 0.0 0.00 0.00 0.00 99 1013.0
20260905100746 19 198 0.0 0.0 0.00 0.00 0.00 99 1013.0
20260905100242 19 198 0.0 0.0 0.00 0.00 0.00 99 1012.8
20260905095742 19 197 0.0 0.0 0.00 0.00 0.00 99 1013.1
20260905095241 19 198 0.0 0.0 0.00 0.00 0.00 99 1013.0
20260905094736 19 197 0.0 0.0 0.00 0.00 0.00 99 1012.8
20260905094231 19 203 0.0 0.0 0.00 0.00 0.00 99 1012.7
20260905093730 19 203 0.0 0.0 0.00 0.00 0.00 99 1012.9
20260905093227 19 207 0.0 0.0 0.00 0.00 0.00 99 1012.9
20260905092722 19 207 0.0 0.0 0.00 0.00 0.00 99 1012.8
20260905092217 19 199 0.0 0.0 0.00 0.00 0.00 99 1012.6
20260905091716 19 199 0.0 0.0 0.00 0.00 0.00 99 1012.7
20260905091211 19 202 0.0 0.0 0.00 0.00 0.00 99 1012.8
20260905090705 19 202 0.0 0.0 0.00 0.00 0.00 99 1012.8